Location: Hemaruka
(51.7801°N, 111.0917°W)
Time: 03:58:55
(UTC+00:00)

XW-2D - Visible Passes

Search period start: 07 December 2023 00:00
Search period end: 17 December 2023 00:00
Orbit: 454 x 463 km, 97.5° (Epoch: 06 December)

Date Brightness Start Highest point End Pass type
(mag) Time Alt. Az. Time Alt. Az. Time Alt. Az.
07 Dec ? 01:29:26 10° S 01:32:46 43° W 01:36:07 10° NNW visible
07 Dec ? 14:19:47 10° NNE 14:23:18 88° WNW 14:26:46 10° SSW visible
08 Dec ? 00:57:03 10° SSE 01:00:31 78° ENE 01:04:00 10° N visible
08 Dec ? 13:47:44 10° NNE 13:51:01 38° E 13:54:16 10° SSE visible
09 Dec ? 00:25:14 10° SE 00:28:23 33° ENE 00:31:33 10° N visible
09 Dec ? 01:58:38 10° SW 02:01:23 21° W 02:04:09 10° NW visible
09 Dec ? 13:16:08 10° NE 13:18:33 17° E 13:20:56 10° SE visible
09 Dec ? 23:54:05 10° ESE 23:56:21 17° ENE 23:58:37 10° NNE visible
10 Dec ? 01:25:34 10° S 01:28:56 48° W 01:32:20 10° NNW visible
10 Dec ? 14:15:57 10° NNE 14:19:27 82° ESE 14:22:54 10° SSW visible
11 Dec ? 00:53:10 10° SSE 00:56:37 69° ENE 01:00:06 10° N visible
11 Dec ? 02:28:54 10° WSW 02:29:58 11° W 02:31:03 10° WNW visible
11 Dec ? 13:43:50 10° NNE 13:47:02 34° E 13:50:12 10° SSE visible
12 Dec ? 00:21:20 10° SE 00:24:24 30° ENE 00:27:29 10° N visible
12 Dec ? 01:54:28 10° SSW 01:57:20 24° W 02:00:14 10° NW visible
12 Dec ? 13:12:16 10° NE 13:14:27 16° E 13:16:37 10° SE visible
12 Dec ? 23:50:13 10° E 23:52:17 15° ENE 23:54:21 10° NNE visible
13 Dec ? 01:21:25 10° S 01:24:49 55° W 01:28:15 10° NNW visible
13 Dec ? 14:11:47 10° NNE 14:15:16 73° ESE 14:18:43 10° S visible
14 Dec ? 00:48:59 10° SSE 00:52:24 61° ENE 00:55:52 10° N visible
14 Dec ? 02:24:10 10° WSW 02:25:42 12° W 02:27:15 10° WNW visible
14 Dec ? 13:39:37 10° NNE 13:42:44 30° E 13:45:49 10° SSE visible
15 Dec ? 00:17:08 10° SE 00:20:06 27° ENE 00:23:05 10° N visible
15 Dec ? 01:50:00 10° SSW 01:52:59 26° W 01:55:59 10° NW visible
15 Dec ? 13:08:07 10° ENE 13:10:01 14° E 13:11:54 10° ESE visible
15 Dec ? 14:39:51 10° N 14:43:15 52° WNW 14:46:36 10° SSW visible
16 Dec ? 01:16:56 10° S 01:20:22 63° WSW 01:23:51 10° NNW visible
16 Dec ? 14:07:19 10° NNE 14:10:46 63° E 14:14:11 10° S visible
